Tracking 29892 objects as of 21-Nov-2024
HD Live streaming from Space Station
objects crossing your sky now

ONEWEB-0177

Track ONEWEB-0177 now!
10-day predictions
ONEWEB-0177 is classified as:


NORAD ID: 48074
Int'l Code: 2021-025AJ
Perigee: 1,215.9 km
Apogee: 1,217.9 km
Inclination: 87.9 °
Period: 109.6 minutes
Semi major axis: 7587 km
RCS: Unknown
Launch date: March 25, 2021
Source: United States (US)
Launch site: VOSTOCHNY COSMODROME (VOSTO)
Your satellite tracking list
Your tracking list is empty




NASA's NSSDC Master Catalog

Two Line Element Set (TLE):
1 48074U 21025AJ  24325.78506042 -.00000087  00000-0 -27244-3 0  9990
2 48074  87.8925  74.2705 0001376 111.7624 248.3652 13.13470079178403
Source of the keplerian elements: AFSPC